Time,TemperatureF,DewpointF,PressureIn,WindDirection,WindDirectionDegrees,WindSpeedMPH,WindSpeedGustMPH,Humidity,HourlyPrecipIn,Conditions,Clouds,dailyrainin,SoftwareType,DateUTC
2013-06-04 00:01:00,54.1,50.4,29.83,WSW,256,2.0,2.0,87,0.00,,,0.00,meteohub,2013-06-04 07:01:00,
2013-06-04 00:07:00,54.0,50.2,29.83,WNW,284,1.0,3.0,87,0.00,,,0.00,meteohub,2013-06-04 07:07:00,
2013-06-04 00:13:00,54.1,50.0,29.83,West,277,0.0,3.0,86,0.00,,,0.00,meteohub,2013-06-04 07:13:00,
2013-06-04 00:18:00,54.1,50.0,29.83,West,265,2.0,3.0,86,0.00,,,0.00,meteohub,2013-06-04 07:18:00,
2013-06-04 00:23:00,54.1,50.0,29.83,WSW,242,0.0,3.0,86,0.00,,,0.00,meteohub,2013-06-04 07:23:00,
2013-06-04 00:28:00,54.1,50.0,29.83,WNW,290,1.0,3.0,86,0.00,,,0.00,meteohub,2013-06-04 07:28:00,
2013-06-04 00:33:00,54.3,50.2,29.83,WSW,252,2.0,3.0,86,0.00,,,0.00,meteohub,2013-06-04 07:33:00,
2013-06-04 00:38:00,54.1,50.0,29.83,SW,218,0.0,3.0,86,0.00,,,0.00,meteohub,2013-06-04 07:38:00,
2013-06-04 00:43:00,54.1,50.0,29.83,West,269,2.0,3.0,86,0.00,,,0.00,meteohub,2013-06-04 07:43:00,
2013-06-04 00:48:00,54.1,50.0,29.83,NW,315,1.0,3.0,86,0.00,,,0.00,meteohub,2013-06-04 07:48:00,
2013-06-04 00:53:00,54.1,50.4,29.83,SW,215,0.0,2.0,87,0.00,,,0.00,meteohub,2013-06-04 07:53:00,
2013-06-04 00:58:00,54.1,50.4,29.83,SW,217,2.0,2.0,87,0.00,,,0.00,meteohub,2013-06-04 07:58:00,
2013-06-04 01:03:00,54.1,50.4,29.83,West,270,2.0,3.0,87,0.00,,,0.00,meteohub,2013-06-04 08:03:00,
2013-06-04 01:08:00,54.1,50.4,29.83,SW,232,1.0,3.0,87,0.00,,,0.00,meteohub,2013-06-04 08:08:00,
2013-06-04 01:13:00,54.0,50.2,29.83,WNW,290,2.0,3.0,87,0.00,,,0.00,meteohub,2013-06-04 08:13:00,
2013-06-04 01:18:00,54.0,50.2,29.83,WSW,245,1.0,4.0,87,0.00,,,0.00,meteohub,2013-06-04 08:18:00,
2013-06-04 01:23:00,54.0,50.2,29.83,WSW,248,1.0,3.0,87,0.00,,,0.00,meteohub,2013-06-04 08:23:00,
2013-06-04 01:28:00,54.1,50.4,29.83,WNW,291,0.0,3.0,87,0.00,,,0.00,meteohub,2013-06-04 08:28:00,
2013-06-04 01:33:00,54.0,50.2,29.83,WNW,291,2.0,3.0,87,0.00,,,0.00,meteohub,2013-06-04 08:33:00,
2013-06-04 01:38:00,54.0,50.2,29.83,SW,233,3.0,4.0,87,0.00,,,0.00,meteohub,2013-06-04 08:38:00,
2013-06-04 01:43:00,54.0,50.2,29.83,WSW,254,1.0,4.0,87,0.00,,,0.00,meteohub,2013-06-04 08:43:00,
2013-06-04 01:48:00,54.0,50.2,29.83,West,269,0.0,4.0,87,0.00,,,0.00,meteohub,2013-06-04 08:48:00,
2013-06-04 01:53:00,54.0,50.2,29.83,West,269,0.0,3.0,87,0.00,,,0.00,meteohub,2013-06-04 08:53:00,
2013-06-04 01:58:00,54.0,50.2,29.83,SW,233,0.0,3.0,87,0.00,,,0.00,meteohub,2013-06-04 08:58:00,
2013-06-04 02:04:00,54.0,50.2,29.83,West,275,0.0,3.0,87,0.00,,,0.00,meteohub,2013-06-04 09:04:00,
2013-06-04 02:09:00,54.0,50.2,29.83,SW,223,0.0,4.0,87,0.00,,,0.00,meteohub,2013-06-04 09:09:00,
2013-06-04 02:14:00,54.0,50.2,29.83,SW,221,0.0,4.0,87,0.00,,,0.00,meteohub,2013-06-04 09:14:00,
2013-06-04 02:19:00,54.0,50.2,29.83,West,263,1.0,4.0,87,0.00,,,0.00,meteohub,2013-06-04 09:19:00,
2013-06-04 02:24:00,54.0,50.2,29.83,West,262,1.0,4.0,87,0.00,,,0.00,meteohub,2013-06-04 09:24:00,
2013-06-04 02:29:00,53.8,50.4,29.83,NW,315,2.0,4.0,88,0.00,,,0.00,meteohub,2013-06-04 09:29:00,
2013-06-04 02:34:00,53.8,50.4,29.83,West,279,1.0,3.0,88,0.00,,,0.00,meteohub,2013-06-04 09:34:00,
2013-06-04 02:39:00,53.8,50.0,29.82,WSW,257,0.0,3.0,87,0.00,,,0.00,meteohub,2013-06-04 09:39:00,
2013-06-04 02:44:00,53.8,50.4,29.82,WSW,240,1.0,3.0,88,0.00,,,0.00,meteohub,2013-06-04 09:44:00,
2013-06-04 02:49:00,53.8,50.4,29.82,NW,309,1.0,5.0,88,0.00,,,0.00,meteohub,2013-06-04 09:49:00,
2013-06-04 02:54:00,53.8,50.4,29.81,West,280,1.0,5.0,88,0.00,,,0.00,meteohub,2013-06-04 09:54:00,
2013-06-04 02:59:00,53.8,50.4,29.81,WNW,288,4.0,4.0,88,0.00,,,0.00,meteohub,2013-06-04 09:59:00,
2013-06-04 03:04:00,53.8,50.4,29.81,WSW,240,2.0,5.0,88,0.00,,,0.00,meteohub,2013-06-04 10:04:00,
2013-06-04 03:09:00,53.8,50.4,29.81,West,281,1.0,5.0,88,0.00,,,0.00,meteohub,2013-06-04 10:09:00,
2013-06-04 03:14:00,53.8,50.4,29.81,WNW,286,1.0,5.0,88,0.00,,,0.00,meteohub,2013-06-04 10:14:00,
2013-06-04 03:19:00,53.8,50.0,29.81,WNW,294,2.0,2.0,87,0.00,,,0.00,meteohub,2013-06-04 10:19:00,
2013-06-04 03:24:00,53.8,50.0,29.81,West,275,0.0,3.0,87,0.00,,,0.00,meteohub,2013-06-04 10:24:00,
2013-06-04 03:29:00,54.0,50.2,29.81,WNW,284,2.0,3.0,87,0.00,,,0.00,meteohub,2013-06-04 10:29:00,
2013-06-04 03:34:00,53.8,50.4,29.81,SW,232,3.0,3.0,88,0.00,,,0.00,meteohub,2013-06-04 10:34:00,
2013-06-04 03:39:00,53.8,50.4,29.81,West,272,2.0,3.0,88,0.00,,,0.00,meteohub,2013-06-04 10:39:00,
2013-06-04 03:44:00,53.8,50.4,29.81,West,269,0.0,3.0,88,0.00,,,0.00,meteohub,2013-06-04 10:44:00,
2013-06-04 03:49:00,53.8,50.4,29.81,South,169,0.0,3.0,88,0.00,,,0.00,meteohub,2013-06-04 10:49:00,
2013-06-04 03:54:00,53.8,50.4,29.81,SW,222,2.0,3.0,88,0.00,,,0.00,meteohub,2013-06-04 10:54:00,
2013-06-04 03:59:00,53.8,50.4,29.81,SW,225,1.0,3.0,88,0.00,,,0.00,meteohub,2013-06-04 10:59:00,
2013-06-04 04:04:00,53.6,50.2,29.81,SW,223,0.0,3.0,88,0.00,,,0.00,meteohub,2013-06-04 11:04:00,
2013-06-04 04:10:00,53.6,50.2,29.81,SW,223,0.0,2.0,88,0.00,,,0.00,meteohub,2013-06-04 11:10:00,
2013-06-04 04:15:00,53.6,50.2,29.81,WSW,249,1.0,2.0,88,0.00,,,0.00,meteohub,2013-06-04 11:15:00,
2013-06-04 04:20:00,53.6,50.2,29.81,SW,226,0.0,2.0,88,0.00,,,0.00,meteohub,2013-06-04 11:20:00,
2013-06-04 04:25:00,53.4,50.0,29.81,SW,226,1.0,3.0,88,0.00,,,0.00,meteohub,2013-06-04 11:25:00,
2013-06-04 04:30:00,53.6,50.2,29.81,South,190,0.0,3.0,88,0.00,,,0.00,meteohub,2013-06-04 11:30:00,
2013-06-04 04:35:00,53.6,50.2,29.81,South,169,0.0,4.0,88,0.00,,,0.00,meteohub,2013-06-04 11:35:00,
2013-06-04 04:40:00,53.6,50.2,29.81,West,259,1.0,4.0,88,0.00,,,0.00,meteohub,2013-06-04 11:40:00,
2013-06-04 04:45:00,53.6,50.2,29.81,SW,234,0.0,3.0,88,0.00,,,0.00,meteohub,2013-06-04 11:45:00,
2013-06-04 04:50:00,53.6,50.2,29.81,SW,229,0.0,3.0,88,0.00,,,0.00,meteohub,2013-06-04 11:50:00,
2013-06-04 04:55:00,53.6,50.2,29.81,WSW,239,1.0,4.0,88,0.00,,,0.00,meteohub,2013-06-04 11:55:00,
2013-06-04 05:00:00,53.6,50.2,29.81,West,259,0.0,4.0,88,0.00,,,0.00,meteohub,2013-06-04 12:00:00,
2013-06-04 05:06:00,53.6,50.2,29.82,WSW,237,1.0,4.0,88,0.00,,,0.00,meteohub,2013-06-04 12:06:00,
2013-06-04 05:11:00,53.6,50.2,29.82,SSW,203,0.0,4.0,88,0.00,,,0.00,meteohub,2013-06-04 12:11:00,
2013-06-04 05:16:00,53.6,50.2,29.82,SSW,196,0.0,3.0,88,0.00,,,0.00,meteohub,2013-06-04 12:16:00,
2013-06-04 05:22:00,53.6,50.2,29.82,South,187,0.0,3.0,88,0.00,,,0.00,meteohub,2013-06-04 12:22:00,
2013-06-04 05:28:00,53.6,50.2,29.82,South,176,2.0,3.0,88,0.00,,,0.00,meteohub,2013-06-04 12:28:00,
2013-06-04 05:33:00,53.6,50.2,29.82,WSW,238,2.0,4.0,88,0.00,,,0.00,meteohub,2013-06-04 12:33:00,
2013-06-04 05:38:00,53.6,50.2,29.82,WSW,237,0.0,4.0,88,0.00,,,0.00,meteohub,2013-06-04 12:38:00,
2013-06-04 05:43:00,53.6,50.2,29.82,SW,222,1.0,4.0,88,0.00,,,0.00,meteohub,2013-06-04 12:43:00,
2013-06-04 05:48:00,53.8,50.4,29.82,SSW,196,1.0,3.0,88,0.00,,,0.00,meteohub,2013-06-04 12:48:00,
2013-06-04 05:53:00,53.6,50.2,29.83,SSW,192,1.0,3.0,88,0.00,,,0.00,meteohub,2013-06-04 12:53:00,
2013-06-04 05:59:00,53.6,50.2,29.83,SW,226,0.0,3.0,88,0.00,,,0.00,meteohub,2013-06-04 12:59:00,
2013-06-04 06:04:00,53.6,50.2,29.83,SSW,211,1.0,3.0,88,0.00,,,0.00,meteohub,2013-06-04 13:04:00,
2013-06-04 06:09:00,53.8,50.4,29.83,SW,226,1.0,4.0,88,0.00,,,0.00,meteohub,2013-06-04 13:09:00,
2013-06-04 06:14:00,53.8,50.4,29.83,SW,236,1.0,3.0,88,0.00,,,0.00,meteohub,2013-06-04 13:14:00,
2013-06-04 06:19:00,53.8,50.4,29.83,WNW,287,0.0,3.0,88,0.00,,,0.00,meteohub,2013-06-04 13:19:00,
2013-06-04 06:24:00,53.6,50.2,29.83,WSW,249,0.0,3.0,88,0.00,,,0.00,meteohub,2013-06-04 13:24:00,
2013-06-04 06:29:00,53.6,50.2,29.83,SSW,202,2.0,2.0,88,0.00,,,0.00,meteohub,2013-06-04 13:29:00,
2013-06-04 06:34:00,53.8,50.4,29.83,SW,225,0.0,4.0,88,0.00,,,0.00,meteohub,2013-06-04 13:34:00,
2013-06-04 06:39:00,53.8,50.4,29.84,SSW,205,0.0,4.0,88,0.00,,,0.00,meteohub,2013-06-04 13:39:00,
2013-06-04 06:44:00,53.8,50.4,29.84,SW,226,0.0,3.0,88,0.00,,,0.00,meteohub,2013-06-04 13:44:00,
2013-06-04 06:49:00,53.8,50.4,29.84,WSW,252,0.0,3.0,88,0.00,,,0.00,meteohub,2013-06-04 13:49:00,
2013-06-04 06:54:00,53.8,50.4,29.84,West,272,0.0,2.0,88,0.00,,,0.00,meteohub,2013-06-04 13:54:00,
2013-06-04 06:59:00,53.8,50.4,29.84,SW,223,0.0,3.0,88,0.00,,,0.00,meteohub,2013-06-04 13:59:00,
2013-06-04 07:04:00,53.8,50.4,29.84,SW,221,1.0,3.0,88,0.00,,,0.00,meteohub,2013-06-04 14:04:00,
2013-06-04 07:09:00,53.8,50.4,29.85,SW,215,1.0,3.0,88,0.00,,,0.00,meteohub,2013-06-04 14:09:00,
2013-06-04 07:14:00,53.6,50.4,29.85,West,281,4.0,4.0,89,0.00,,,0.00,meteohub,2013-06-04 14:14:00,
2013-06-04 07:19:00,53.4,50.2,29.85,WSW,251,0.0,4.0,89,0.00,,,0.00,meteohub,2013-06-04 14:19:00,
2013-06-04 07:24:00,53.4,50.2,29.86,West,269,2.0,4.0,89,0.00,,,0.00,meteohub,2013-06-04 14:24:00,
2013-06-04 07:30:00,53.4,50.2,29.86,WSW,241,3.0,3.0,89,0.00,,,0.00,meteohub,2013-06-04 14:30:00,
2013-06-04 07:35:00,53.6,50.2,29.86,WSW,252,0.0,3.0,88,0.00,,,0.00,meteohub,2013-06-04 14:35:00,
2013-06-04 07:40:00,53.8,50.4,29.86,WSW,256,1.0,3.0,88,0.00,,,0.00,meteohub,2013-06-04 14:40:00,
2013-06-04 07:45:00,53.8,50.5,29.86,South,188,2.0,3.0,89,0.00,,,0.00,meteohub,2013-06-04 14:45:00,
2013-06-04 07:50:00,53.8,50.4,29.86,SSW,205,1.0,5.0,88,0.00,,,0.00,meteohub,2013-06-04 14:50:00,
2013-06-04 07:55:00,53.8,50.5,29.87,SW,215,0.0,5.0,89,0.00,,,0.00,meteohub,2013-06-04 14:55:00,
2013-06-04 08:00:00,53.8,50.4,29.87,West,261,0.0,5.0,88,0.00,,,0.00,meteohub,2013-06-04 15:00:00,
2013-06-04 08:05:00,53.8,50.0,29.87,WSW,245,1.0,4.0,87,0.00,,,0.00,meteohub,2013-06-04 15:05:00,
2013-06-04 08:10:00,54.0,50.5,29.87,SSW,213,2.0,4.0,88,0.00,,,0.00,meteohub,2013-06-04 15:10:00,
2013-06-04 08:15:00,54.0,49.8,29.87,WSW,240,3.0,4.0,86,0.00,,,0.00,meteohub,2013-06-04 15:15:00,
2013-06-04 08:20:00,54.0,50.2,29.88,SSW,198,3.0,6.0,87,0.00,,,0.00,meteohub,2013-06-04 15:20:00,
2013-06-04 08:26:00,53.8,50.0,29.88,SW,232,0.0,6.0,87,0.00,,,0.00,meteohub,2013-06-04 15:26:00,
2013-06-04 08:31:00,53.8,50.4,29.88,WSW,238,1.0,5.0,88,0.00,,,0.00,meteohub,2013-06-04 15:31:00,
2013-06-04 08:36:00,54.0,50.2,29.88,South,190,0.0,4.0,87,0.00,,,0.00,meteohub,2013-06-04 15:36:00,
2013-06-04 08:41:00,54.1,50.4,29.88,West,273,1.0,4.0,87,0.00,,,0.00,meteohub,2013-06-04 15:41:00,
2013-06-04 08:46:00,54.1,50.4,29.88,SE,134,2.0,4.0,87,0.00,,,0.00,meteohub,2013-06-04 15:46:00,
2013-06-04 08:51:00,54.1,50.4,29.89,WSW,238,1.0,5.0,87,0.00,,,0.00,meteohub,2013-06-04 15:51:00,
2013-06-04 08:56:00,54.3,50.5,29.89,WSW,238,1.0,5.0,87,0.00,,,0.00,meteohub,2013-06-04 15:56:00,
2013-06-04 09:01:00,54.5,50.7,29.89,SW,216,1.0,5.0,87,0.00,,,0.00,meteohub,2013-06-04 16:01:00,
2013-06-04 09:06:00,54.5,50.4,29.89,SW,225,2.0,3.0,86,0.00,,,0.00,meteohub,2013-06-04 16:06:00,
2013-06-04 09:11:00,54.5,50.4,29.89,SW,221,1.0,4.0,86,0.00,,,0.00,meteohub,2013-06-04 16:11:00,
2013-06-04 09:16:00,54.7,50.5,29.89,West,272,1.0,4.0,86,0.00,,,0.00,meteohub,2013-06-04 16:16:00,
2013-06-04 09:21:00,54.9,50.4,29.89,WSW,253,2.0,3.0,85,0.00,,,0.00,meteohub,2013-06-04 16:21:00,
2013-06-04 09:26:00,55.0,50.5,29.89,SSW,202,2.0,4.0,85,0.00,,,0.00,meteohub,2013-06-04 16:26:00,
2013-06-04 09:31:00,55.0,50.5,29.89,West,264,0.0,5.0,85,0.00,,,0.00,meteohub,2013-06-04 16:31:00,
2013-06-04 09:36:00,55.0,50.5,29.89,WNW,295,2.0,5.0,85,0.00,,,0.00,meteohub,2013-06-04 16:36:00,
2013-06-04 09:41:00,55.0,50.5,29.89,SSW,207,1.0,4.0,85,0.00,,,0.00,meteohub,2013-06-04 16:41:00,
2013-06-04 09:47:00,55.4,50.9,29.89,SW,233,0.0,4.0,85,0.00,,,0.00,meteohub,2013-06-04 16:47:00,
2013-06-04 09:52:00,55.8,50.7,29.90,SSW,205,1.0,4.0,83,0.00,,,0.00,meteohub,2013-06-04 16:52:00,
2013-06-04 09:57:00,55.8,50.4,29.90,SE,140,1.0,5.0,82,0.00,,,0.00,meteohub,2013-06-04 16:57:00,
2013-06-04 10:02:00,55.9,50.9,29.90,SW,227,1.0,5.0,83,0.00,,,0.00,meteohub,2013-06-04 17:02:00,
2013-06-04 10:07:00,56.1,50.7,29.90,SW,227,1.0,4.0,82,0.00,,,0.00,meteohub,2013-06-04 17:07:00,
2013-06-04 10:12:00,56.3,50.9,29.90,West,277,1.0,4.0,82,0.00,,,0.00,meteohub,2013-06-04 17:12:00,
2013-06-04 10:17:00,56.3,50.9,29.90,NNW,346,2.0,6.0,82,0.00,,,0.00,meteohub,2013-06-04 17:17:00,
2013-06-04 10:22:00,56.7,50.9,29.90,SW,232,3.0,6.0,81,0.00,,,0.00,meteohub,2013-06-04 17:22:00,
2013-06-04 10:27:00,56.8,51.1,29.90,South,174,1.0,5.0,81,0.00,,,0.00,meteohub,2013-06-04 17:27:00,
2013-06-04 10:32:00,57.0,51.3,29.90,WNW,298,1.0,4.0,81,0.00,,,0.00,meteohub,2013-06-04 17:32:00,
2013-06-04 10:37:00,57.0,50.9,29.90,ESE,123,1.0,4.0,80,0.00,,,0.00,meteohub,2013-06-04 17:37:00,
2013-06-04 10:42:00,57.6,51.1,29.90,SW,215,2.0,2.0,79,0.00,,,0.00,meteohub,2013-06-04 17:42:00,
2013-06-04 10:47:00,57.6,51.1,29.90,WNW,303,4.0,6.0,79,0.00,,,0.00,meteohub,2013-06-04 17:47:00,
2013-06-04 10:52:00,57.4,51.3,29.91,WSW,253,3.0,6.0,80,0.00,,,0.00,meteohub,2013-06-04 17:52:00,
2013-06-04 10:57:00,57.6,51.1,29.91,South,184,0.0,5.0,79,0.00,,,0.00,meteohub,2013-06-04 17:57:00,
2013-06-04 11:02:00,57.7,51.3,29.91,WSW,240,1.0,5.0,79,0.00,,,0.00,meteohub,2013-06-04 18:02:00,
2013-06-04 11:07:00,57.9,51.1,29.91,WSW,258,4.0,5.0,78,0.00,,,0.00,meteohub,2013-06-04 18:07:00,
2013-06-04 11:12:00,57.7,51.3,29.91,SSW,205,2.0,6.0,79,0.00,,,0.00,meteohub,2013-06-04 18:12:00,
2013-06-04 11:18:00,58.1,51.3,29.91,WSW,245,3.0,7.0,78,0.00,,,0.00,meteohub,2013-06-04 18:18:00,
2013-06-04 11:23:00,58.1,51.3,29.91,WNW,288,3.0,7.0,78,0.00,,,0.00,meteohub,2013-06-04 18:23:00,
2013-06-04 11:28:00,58.3,51.4,29.91,SSW,195,2.0,5.0,78,0.00,,,0.00,meteohub,2013-06-04 18:28:00,
2013-06-04 11:33:00,58.5,51.6,29.91,West,277,1.0,5.0,78,0.00,,,0.00,meteohub,2013-06-04 18:33:00,
2013-06-04 11:38:00,58.6,51.8,29.91,WSW,237,3.0,6.0,78,0.00,,,0.00,meteohub,2013-06-04 18:38:00,
2013-06-04 11:43:00,58.6,51.4,29.91,West,265,2.0,9.0,77,0.00,,,0.00,meteohub,2013-06-04 18:43:00,
2013-06-04 11:48:00,58.5,51.6,29.91,SW,227,0.0,9.0,78,0.00,,,0.00,meteohub,2013-06-04 18:48:00,
2013-06-04 11:53:00,59.4,51.8,29.91,SW,227,0.0,9.0,76,0.00,,,0.00,meteohub,2013-06-04 18:53:00,
2013-06-04 11:58:00,60.4,52.2,29.91,SSE,163,3.0,6.0,74,0.00,,,0.00,meteohub,2013-06-04 18:58:00,
2013-06-04 12:03:00,61.2,52.0,29.91,South,169,2.0,5.0,72,0.00,,,0.00,meteohub,2013-06-04 19:03:00,
2013-06-04 12:08:00,60.6,52.0,29.91,SE,142,3.0,9.0,73,0.00,,,0.00,meteohub,2013-06-04 19:08:00,
2013-06-04 12:13:00,61.5,52.7,29.91,WNW,292,4.0,9.0,73,0.00,,,0.00,meteohub,2013-06-04 19:13:00,
2013-06-04 12:18:00,61.3,52.2,29.91,South,169,3.0,9.0,72,0.00,,,0.00,meteohub,2013-06-04 19:18:00,
2013-06-04 12:23:00,62.1,52.9,29.91,SSW,211,4.0,9.0,72,0.00,,,0.00,meteohub,2013-06-04 19:23:00,
2013-06-04 12:29:00,62.4,52.9,29.91,SW,219,2.0,7.0,71,0.00,,,0.00,meteohub,2013-06-04 19:29:00,
2013-06-04 12:34:00,62.2,53.1,29.91,WSW,242,3.0,7.0,72,0.00,,,0.00,meteohub,2013-06-04 19:34:00,
2013-06-04 12:39:00,62.2,52.7,29.91,SW,222,3.0,6.0,71,0.00,,,0.00,meteohub,2013-06-04 19:39:00,
2013-06-04 12:44:00,62.2,53.1,29.91,WSW,240,3.0,6.0,72,0.00,,,0.00,meteohub,2013-06-04 19:44:00,
2013-06-04 12:49:00,62.2,52.7,29.91,SE,140,3.0,11.0,71,0.00,,,0.00,meteohub,2013-06-04 19:49:00,
2013-06-04 12:54:00,62.8,53.2,29.91,SSW,196,3.0,11.0,71,0.00,,,0.00,meteohub,2013-06-04 19:54:00,
2013-06-04 12:59:00,62.6,52.7,29.91,WNW,284,2.0,11.0,70,0.00,,,0.00,meteohub,2013-06-04 19:59:00,
2013-06-04 13:04:00,62.2,52.3,29.91,WNW,303,4.0,10.0,70,0.00,,,0.00,meteohub,2013-06-04 20:04:00,
2013-06-04 13:09:00,62.1,52.5,29.91,SSE,163,2.0,10.0,71,0.00,,,0.00,meteohub,2013-06-04 20:09:00,
2013-06-04 13:14:00,62.2,53.1,29.91,WNW,283,2.0,10.0,72,0.00,,,0.00,meteohub,2013-06-04 20:14:00,
2013-06-04 13:19:00,62.4,53.2,29.91,SSE,167,3.0,9.0,72,0.00,,,0.00,meteohub,2013-06-04 20:19:00,
2013-06-04 13:24:00,62.4,52.9,29.91,South,186,3.0,7.0,71,0.00,,,0.00,meteohub,2013-06-04 20:24:00,
2013-06-04 13:29:00,61.9,52.7,29.91,SW,218,3.0,9.0,72,0.00,,,0.00,meteohub,2013-06-04 20:29:00,
2013-06-04 13:34:00,62.1,53.2,29.91,South,172,5.0,11.0,73,0.00,,,0.00,meteohub,2013-06-04 20:34:00,
2013-06-04 13:39:00,61.7,52.5,29.91,SW,219,2.0,11.0,72,0.00,,,0.00,meteohub,2013-06-04 20:39:00,
2013-06-04 13:44:00,62.1,52.9,29.91,West,265,1.0,10.0,72,0.00,,,0.00,meteohub,2013-06-04 20:44:00,
2013-06-04 13:50:00,62.1,52.9,29.91,West,277,1.0,10.0,72,0.00,,,0.00,meteohub,2013-06-04 20:50:00,
2013-06-04 13:55:00,62.2,52.7,29.91,SSW,196,2.0,7.0,71,0.00,,,0.00,meteohub,2013-06-04 20:55:00,
2013-06-04 14:00:00,62.8,53.2,29.91,SW,222,4.0,9.0,71,0.00,,,0.00,meteohub,2013-06-04 21:00:00,
2013-06-04 14:05:00,63.3,53.4,29.91,WSW,249,1.0,9.0,70,0.00,,,0.00,meteohub,2013-06-04 21:05:00,
2013-06-04 14:10:00,63.3,53.1,29.91,WNW,300,2.0,7.0,69,0.00,,,0.00,meteohub,2013-06-04 21:10:00,
2013-06-04 14:15:00,62.8,52.9,29.91,NW,319,3.0,7.0,70,0.00,,,0.00,meteohub,2013-06-04 21:15:00,
2013-06-04 14:20:00,63.0,53.4,29.91,West,281,6.0,7.0,71,0.00,,,0.00,meteohub,2013-06-04 21:20:00,
2013-06-04 14:25:00,63.3,53.1,29.91,WNW,290,4.0,11.0,69,0.00,,,0.00,meteohub,2013-06-04 21:25:00,
2013-06-04 14:30:00,64.2,53.8,29.91,SW,233,4.0,11.0,69,0.00,,,0.00,meteohub,2013-06-04 21:30:00,
2013-06-04 14:35:00,63.7,53.2,29.91,SSW,211,2.0,11.0,69,0.00,,,0.00,meteohub,2013-06-04 21:35:00,
2013-06-04 14:40:00,63.7,52.9,29.91,SSW,205,2.0,7.0,68,0.00,,,0.00,meteohub,2013-06-04 21:40:00,
2013-06-04 14:46:00,63.7,53.2,29.91,SSW,197,1.0,10.0,69,0.00,,,0.00,meteohub,2013-06-04 21:46:00,
2013-06-04 14:51:00,64.6,53.4,29.91,WNW,288,5.0,10.0,67,0.00,,,0.00,meteohub,2013-06-04 21:51:00,
2013-06-04 14:56:00,64.2,53.4,29.91,WNW,283,3.0,10.0,68,0.00,,,0.00,meteohub,2013-06-04 21:56:00,
2013-06-04 15:01:00,64.9,53.8,29.91,SSW,192,2.0,9.0,67,0.00,,,0.00,meteohub,2013-06-04 22:01:00,
2013-06-04 15:06:00,64.8,53.1,29.91,SSE,163,4.0,9.0,66,0.00,,,0.00,meteohub,2013-06-04 22:06:00,
2013-06-04 15:11:00,65.1,54.0,29.91,ENE,75,2.0,9.0,67,0.00,,,0.00,meteohub,2013-06-04 22:11:00,
2013-06-04 15:16:00,65.1,53.4,29.91,South,178,6.0,9.0,66,0.00,,,0.00,meteohub,2013-06-04 22:16:00,
2013-06-04 15:21:00,64.0,53.2,29.91,West,261,9.0,9.0,68,0.00,,,0.00,meteohub,2013-06-04 22:21:00,
2013-06-04 15:26:00,64.0,53.6,29.91,SSW,211,4.0,13.0,69,0.00,,,0.00,meteohub,2013-06-04 22:26:00,
2013-06-04 15:31:00,64.2,53.1,29.91,SW,221,6.0,11.0,67,0.00,,,0.00,meteohub,2013-06-04 22:31:00,
2013-06-04 15:36:00,64.6,52.9,29.90,South,172,3.0,10.0,66,0.00,,,0.00,meteohub,2013-06-04 22:36:00,
2013-06-04 15:41:00,65.1,53.4,29.90,SE,146,6.0,10.0,66,0.00,,,0.00,meteohub,2013-06-04 22:41:00,
2013-06-04 15:46:00,65.7,53.6,29.90,SW,226,1.0,10.0,65,0.00,,,0.00,meteohub,2013-06-04 22:46:00,
2013-06-04 15:51:00,64.9,52.9,29.89,SW,232,6.0,10.0,65,0.00,,,0.00,meteohub,2013-06-04 22:51:00,
2013-06-04 15:56:00,65.1,53.1,29.89,SW,230,2.0,9.0,65,0.00,,,0.00,meteohub,2013-06-04 22:56:00,
2013-06-04 16:01:00,65.1,53.1,29.89,SSW,206,4.0,10.0,65,0.00,,,0.00,meteohub,2013-06-04 23:01:00,
2013-06-04 16:06:00,64.9,52.9,29.89,SW,214,5.0,10.0,65,0.00,,,0.00,meteohub,2013-06-04 23:06:00,
2013-06-04 16:11:00,64.6,52.9,29.89,SSW,193,1.0,10.0,66,0.00,,,0.00,meteohub,2013-06-04 23:11:00,
2013-06-04 16:17:00,64.9,53.2,29.89,SSW,198,5.0,10.0,66,0.00,,,0.00,meteohub,2013-06-04 23:17:00,
2013-06-04 16:22:00,64.9,52.9,29.89,WNW,282,3.0,9.0,65,0.00,,,0.00,meteohub,2013-06-04 23:22:00,
2013-06-04 16:27:00,65.1,53.1,29.89,SSW,207,4.0,9.0,65,0.00,,,0.00,meteohub,2013-06-04 23:27:00,
2013-06-04 16:32:00,64.9,52.9,29.89,West,267,3.0,9.0,65,0.00,,,0.00,meteohub,2013-06-04 23:32:00,
2013-06-04 16:37:00,64.8,53.1,29.89,SW,227,4.0,9.0,66,0.00,,,0.00,meteohub,2013-06-04 23:37:00,
2013-06-04 16:42:00,64.9,53.8,29.89,ESE,123,6.0,10.0,67,0.00,,,0.00,meteohub,2013-06-04 23:42:00,
2013-06-04 16:47:00,65.3,53.6,29.89,SW,236,3.0,10.0,66,0.00,,,0.00,meteohub,2013-06-04 23:47:00,
2013-06-04 16:52:00,65.1,53.1,29.89,South,188,2.0,10.0,65,0.00,,,0.00,meteohub,2013-06-04 23:52:00,
2013-06-04 16:57:00,64.9,53.2,29.89,WSW,249,2.0,10.0,66,0.00,,,0.00,meteohub,2013-06-04 23:57:00,
2013-06-04 17:02:00,64.9,53.2,29.89,West,281,5.0,10.0,66,0.00,,,0.00,meteohub,2013-06-05 00:02:00,
2013-06-04 17:07:00,64.8,52.7,29.89,South,179,4.0,10.0,65,0.00,,,0.00,meteohub,2013-06-05 00:07:00,
2013-06-04 17:12:00,64.6,52.9,29.89,SE,133,3.0,10.0,66,0.00,,,0.00,meteohub,2013-06-05 00:12:00,
2013-06-04 17:17:00,64.6,52.9,29.89,SSW,197,3.0,10.0,66,0.00,,,0.00,meteohub,2013-06-05 00:17:00,
2013-06-04 17:22:00,64.2,53.1,29.88,SSE,156,1.0,10.0,67,0.00,,,0.00,meteohub,2013-06-05 00:22:00,
2013-06-04 17:27:00,63.9,53.1,29.88,SW,219,4.0,8.0,68,0.00,,,0.00,meteohub,2013-06-05 00:27:00,
2013-06-04 17:32:00,63.9,53.1,29.88,West,265,3.0,12.0,68,0.00,,,0.00,meteohub,2013-06-05 00:32:00,
2013-06-04 17:38:00,64.0,52.9,29.88,WSW,238,4.0,12.0,67,0.00,,,0.00,meteohub,2013-06-05 00:38:00,
2013-06-04 17:43:00,63.5,52.7,29.88,West,271,3.0,8.0,68,0.00,,,0.00,meteohub,2013-06-05 00:43:00,
2013-06-04 17:48:00,63.1,52.3,29.88,SW,217,5.0,10.0,68,0.00,,,0.00,meteohub,2013-06-05 00:48:00,
2013-06-04 17:53:00,63.1,52.3,29.88,SW,225,2.0,10.0,68,0.00,,,0.00,meteohub,2013-06-05 00:53:00,
2013-06-04 17:58:00,63.1,52.3,29.88,SSW,207,3.0,10.0,68,0.00,,,0.00,meteohub,2013-06-05 00:58:00,
2013-06-04 18:03:00,63.1,52.3,29.88,SSW,207,3.0,6.0,68,0.00,,,0.00,meteohub,2013-06-05 01:03:00,
2013-06-04 18:08:00,62.4,52.2,29.88,WSW,242,6.0,8.0,69,0.00,,,0.00,meteohub,2013-06-05 01:08:00,
2013-06-04 18:13:00,62.4,52.5,29.88,SSW,207,5.0,9.0,70,0.00,,,0.00,meteohub,2013-06-05 01:13:00,
2013-06-04 18:18:00,62.8,52.9,29.88,WSW,244,1.0,9.0,70,0.00,,,0.00,meteohub,2013-06-05 01:18:00,
2013-06-04 18:23:00,62.4,52.5,29.88,SW,222,2.0,9.0,70,0.00,,,0.00,meteohub,2013-06-05 01:23:00,
2013-06-04 18:28:00,61.7,52.2,29.88,SW,232,6.0,9.0,71,0.00,,,0.00,meteohub,2013-06-05 01:28:00,
2013-06-04 18:33:00,61.7,52.2,29.88,SSW,211,1.0,9.0,71,0.00,,,0.00,meteohub,2013-06-05 01:33:00,
2013-06-04 18:38:00,61.7,52.2,29.88,SW,230,1.0,9.0,71,0.00,,,0.00,meteohub,2013-06-05 01:38:00,
2013-06-04 18:43:00,61.2,52.0,29.88,SSW,193,4.0,9.0,72,0.00,,,0.00,meteohub,2013-06-05 01:43:00,
2013-06-04 18:48:00,61.0,52.0,29.88,SSW,198,10.0,10.0,72,0.00,,,0.00,meteohub,2013-06-05 01:48:00,
2013-06-04 18:53:00,60.8,52.2,29.88,South,186,2.0,12.0,73,0.00,,,0.00,meteohub,2013-06-05 01:53:00,
2013-06-04 18:58:00,60.8,52.2,29.88,SE,144,4.0,12.0,73,0.00,,,0.00,meteohub,2013-06-05 01:58:00,
2013-06-04 19:03:00,60.6,52.0,29.88,SSW,197,4.0,12.0,73,0.00,,,0.00,meteohub,2013-06-05 02:03:00,
2013-06-04 19:08:00,60.1,51.8,29.88,SW,226,4.0,11.0,74,0.00,,,0.00,meteohub,2013-06-05 02:08:00,
2013-06-04 19:13:00,59.5,51.6,29.88,SW,219,5.0,11.0,75,0.00,,,0.00,meteohub,2013-06-05 02:13:00,
2013-06-04 19:18:00,59.4,51.8,29.88,South,180,3.0,10.0,76,0.00,,,0.00,meteohub,2013-06-05 02:18:00,
2013-06-04 19:23:00,59.0,51.4,29.89,SSE,164,1.0,10.0,76,0.00,,,0.00,meteohub,2013-06-05 02:23:00,
2013-06-04 19:28:00,58.5,51.3,29.89,South,173,5.0,10.0,77,0.00,,,0.00,meteohub,2013-06-05 02:28:00,
2013-06-04 19:34:00,58.1,51.3,29.89,SSW,211,1.0,10.0,78,0.00,,,0.00,meteohub,2013-06-05 02:34:00,
2013-06-04 19:39:00,57.9,51.1,29.89,WSW,245,1.0,7.0,78,0.00,,,0.00,meteohub,2013-06-05 02:39:00,
2013-06-04 19:44:00,57.4,50.9,29.89,SW,215,2.0,6.0,79,0.00,,,0.00,meteohub,2013-06-05 02:44:00,
2013-06-04 19:49:00,57.0,50.9,29.89,West,272,2.0,7.0,80,0.00,,,0.00,meteohub,2013-06-05 02:49:00,
2013-06-04 19:54:00,56.7,50.9,29.89,South,182,2.0,6.0,81,0.00,,,0.00,meteohub,2013-06-05 02:54:00,
2013-06-04 19:59:00,56.3,50.5,29.89,SW,214,1.0,6.0,81,0.00,,,0.00,meteohub,2013-06-05 02:59:00,
2013-06-04 20:04:00,56.3,50.9,29.89,West,265,2.0,6.0,82,0.00,,,0.00,meteohub,2013-06-05 03:04:00,
2013-06-04 20:09:00,56.1,50.7,29.89,SSW,206,1.0,6.0,82,0.00,,,0.00,meteohub,2013-06-05 03:09:00,
2013-06-04 20:14:00,56.1,50.7,29.89,WSW,238,2.0,6.0,82,0.00,,,0.00,meteohub,2013-06-05 03:14:00,
2013-06-04 20:19:00,55.8,50.7,29.89,WSW,238,3.0,9.0,83,0.00,,,0.00,meteohub,2013-06-05 03:19:00,
2013-06-04 20:24:00,55.6,50.9,29.89,WSW,240,3.0,9.0,84,0.00,,,0.00,meteohub,2013-06-05 03:24:00,
2013-06-04 20:29:00,55.2,50.5,29.89,WSW,246,2.0,9.0,84,0.00,,,0.00,meteohub,2013-06-05 03:29:00,
2013-06-04 20:34:00,55.0,50.4,29.89,SW,233,2.0,6.0,84,0.00,,,0.00,meteohub,2013-06-05 03:34:00,
2013-06-04 20:39:00,55.0,50.5,29.89,SW,219,1.0,5.0,85,0.00,,,0.00,meteohub,2013-06-05 03:39:00,
2013-06-04 20:44:00,54.9,50.4,29.89,South,182,3.0,4.0,85,0.00,,,0.00,meteohub,2013-06-05 03:44:00,
2013-06-04 20:49:00,54.9,50.4,29.89,SSW,207,3.0,5.0,85,0.00,,,0.00,meteohub,2013-06-05 03:49:00,
2013-06-04 20:54:00,54.9,50.4,29.90,SSW,211,2.0,5.0,85,0.00,,,0.00,meteohub,2013-06-05 03:54:00,
2013-06-04 20:59:00,54.7,50.5,29.90,SSE,167,2.0,5.0,86,0.00,,,0.00,meteohub,2013-06-05 03:59:00,
2013-06-04 21:01:00,54.7,50.5,29.90,SSE,151,1.0,4.0,86,0.00,,,0.00,meteohub,2013-06-05 04:01:00,
2013-06-04 21:02:00,54.7,50.5,29.90,West,275,2.0,4.0,86,0.00,,,0.00,meteohub,2013-06-05 04:02:00,
2013-06-04 21:04:00,54.7,50.5,29.90,SW,218,3.0,4.0,86,0.00,,,0.00,meteohub,2013-06-05 04:04:00,
2013-06-04 21:06:00,54.7,50.5,29.90,SSW,205,1.0,4.0,86,0.00,,,0.00,meteohub,2013-06-05 04:06:00,
2013-06-04 21:12:00,54.7,50.5,29.90,SE,146,2.0,5.0,86,0.00,,,0.00,meteohub,2013-06-05 04:12:00,
2013-06-04 21:18:00,54.3,50.5,29.90,South,186,2.0,5.0,87,0.00,,,0.00,meteohub,2013-06-05 04:18:00,
2013-06-04 21:23:00,54.5,50.7,29.91,SW,215,1.0,5.0,87,0.00,,,0.00,meteohub,2013-06-05 04:23:00,
2013-06-04 21:28:00,54.5,50.4,29.91,South,173,1.0,5.0,86,0.00,,,0.00,meteohub,2013-06-05 04:28:00,
2013-06-04 21:33:00,54.5,50.4,29.91,SSW,209,1.0,4.0,86,0.00,,,0.00,meteohub,2013-06-05 04:33:00,
2013-06-04 21:38:00,54.3,50.5,29.91,SW,236,3.0,6.0,87,0.00,,,0.00,meteohub,2013-06-05 04:38:00,
2013-06-04 21:43:00,54.1,50.4,29.91,WSW,249,2.0,6.0,87,0.00,,,0.00,meteohub,2013-06-05 04:43:00,
2013-06-04 21:48:00,54.1,50.4,29.91,SW,214,0.0,5.0,87,0.00,,,0.00,meteohub,2013-06-05 04:48:00,
2013-06-04 21:53:00,54.1,50.4,29.91,SW,215,1.0,4.0,87,0.00,,,0.00,meteohub,2013-06-05 04:53:00,
2013-06-04 21:58:00,54.1,50.4,29.91,SW,233,2.0,4.0,87,0.00,,,0.00,meteohub,2013-06-05 04:58:00,
2013-06-04 22:03:00,54.0,50.2,29.91,SW,233,4.0,4.0,87,0.00,,,0.00,meteohub,2013-06-05 05:03:00,
2013-06-04 22:08:00,54.0,50.2,29.91,South,188,0.0,5.0,87,0.00,,,0.00,meteohub,2013-06-05 05:08:00,
2013-06-04 22:13:00,54.0,50.2,29.91,SSW,192,2.0,5.0,87,0.00,,,0.00,meteohub,2013-06-05 05:13:00,
2013-06-04 22:18:00,54.0,50.2,29.91,SW,225,0.0,4.0,87,0.00,,,0.00,meteohub,2013-06-05 05:18:00,
2013-06-04 22:23:00,54.0,50.2,29.92,South,178,1.0,5.0,87,0.00,,,0.00,meteohub,2013-06-05 05:23:00,
2013-06-04 22:28:00,53.8,50.0,29.92,SSW,210,2.0,5.0,87,0.00,,,0.00,meteohub,2013-06-05 05:28:00,
2013-06-04 22:33:00,53.8,50.4,29.92,SW,229,1.0,6.0,88,0.00,,,0.00,meteohub,2013-06-05 05:33:00,
2013-06-04 22:39:00,53.8,50.0,29.92,WSW,248,0.0,6.0,87,0.00,,,0.00,meteohub,2013-06-05 05:39:00,
2013-06-04 22:44:00,53.8,50.0,29.92,SSW,200,0.0,5.0,87,0.00,,,0.00,meteohub,2013-06-05 05:44:00,
2013-06-04 22:49:00,53.6,50.2,29.92,SW,227,3.0,5.0,88,0.00,,,0.00,meteohub,2013-06-05 05:49:00,
2013-06-04 22:54:00,53.4,50.0,29.92,SSW,202,1.0,5.0,88,0.00,,,0.00,meteohub,2013-06-05 05:54:00,
2013-06-04 22:59:00,53.4,50.0,29.92,SW,229,3.0,5.0,88,0.00,,,0.00,meteohub,2013-06-05 05:59:00,
2013-06-04 23:04:00,53.4,50.0,29.92,SSE,161,2.0,5.0,88,0.00,,,0.00,meteohub,2013-06-05 06:04:00,
2013-06-04 23:09:00,53.4,50.0,29.92,SSE,149,1.0,5.0,88,0.00,,,0.00,meteohub,2013-06-05 06:09:00,
2013-06-04 23:14:00,53.4,50.0,29.92,SSW,204,1.0,5.0,88,0.00,,,0.00,meteohub,2013-06-05 06:14:00,
2013-06-04 23:19:00,53.2,49.8,29.92,SW,215,1.0,5.0,88,0.00,,,0.00,meteohub,2013-06-05 06:19:00,
2013-06-04 23:24:00,53.4,50.0,29.92,South,187,0.0,4.0,88,0.00,,,0.00,meteohub,2013-06-05 06:24:00,
2013-06-04 23:29:00,53.4,50.0,29.92,South,188,4.0,4.0,88,0.00,,,0.00,meteohub,2013-06-05 06:29:00,
2013-06-04 23:34:00,53.2,50.0,29.92,SW,236,2.0,4.0,89,0.00,,,0.00,meteohub,2013-06-05 06:34:00,
2013-06-04 23:39:00,53.2,50.0,29.92,SSW,204,1.0,4.0,89,0.00,,,0.00,meteohub,2013-06-05 06:39:00,
2013-06-04 23:44:00,53.1,49.8,29.92,South,175,3.0,4.0,89,0.00,,,0.00,meteohub,2013-06-05 06:44:00,
2013-06-04 23:49:00,53.1,49.8,29.92,SSE,164,3.0,5.0,89,0.00,,,0.00,meteohub,2013-06-05 06:49:00,
2013-06-04 23:54:00,53.1,49.8,29.93,SSE,153,2.0,5.0,89,0.00,,,0.00,meteohub,2013-06-05 06:54:00,
2013-06-04 23:59:00,52.9,49.6,29.93,SE,136,2.0,5.0,89,0.00,,,0.00,meteohub,2013-06-05 06:59:00,